Preview of NWS' New Version of Forecast
This preview is not operational and should not be used for support decisions.

Regional Weather Roundup (RWR)

Issued by National Weather Service (NWS)

                            
000
ASUS42 KTBW 221416
RWRFL 
FLORIDA REGIONAL WEATHER ROUNDUP
NATIONAL WEATHER SERVICE TAMPA BAY RUSKIN FL
1000 AM EDT MON APR 22 2019

NOTE: "FAIR" INDICATES FEW OR NO CLOUDS BELOW 12,000 FEET WITH NO
SIGNIFICANT WEATHER AND/OR OBSTRUCTIONS TO VISIBILITY.

FLZ001>010-012>015-112-114-115-221500-
PANHANDLE FLORIDA
  
CITY           SKY/WX    TMP DP  RH WIND       PRES   REMARKS
PENSACOLA      FAIR      69  51  52 NE5       30.20S                  
PENSACOLA NAS  FAIR      68  54  60 N3        30.20S                  
MILTON NAS     FAIR      65  51  60 VRB5      30.21S                  
CRESTVIEW      FAIR      66  50  56 CALM      30.22F                  
DUKE FIELD     FAIR      66  48  51 N5        30.20F                  
VALPARAISO     FAIR      68  45  44 N5        30.20S                  
MARY ESTHER    SUNNY     68  53  58 NE3       30.19S                  
PANAMA CITY    FAIR      68  48  48 NW7       30.21S                  
TYNDALL AFB    FAIR      66  51  57 NE6       30.21F                  
APALACHICOLA   FAIR      68  47  46 N8        30.21R                  

STATION/POSITION SKY/WX   TEMP    WIND        PRES    WAVE   SWELL
                          AIR SEA DIR/SP/G            HT/PER HT/PER
                          (F)     (DEG/KT/KT) (MB)    (FT/S) (FT/S)
30.1N   87.6W                                 1023.2R   1
29.2N   88.2W                      80/  8/ 10 1023.1R   1/ 5
PANAMA CITY BEAC           65 68   30/  4/  5 1023.4S
TOWER C          NOT AVBL

$$
FLZ011-016>038-118-127-128-134-139-239-221500-
NORTH FLORIDA
  
CITY           SKY/WX    TMP DP  RH WIND       PRES   REMARKS
MARIANNA       FAIR      66  52  60 VRB3      30.21S                  
TALLAHASSEE    FAIR      68  50  52 N7        30.21S                  
PERRY          FAIR      67  51  55 CALM      30.22R                  
LIVE OAK       SUNNY     66  50  55 CALM      30.20S                  
CROSS CITY     FAIR      69  51  53 CALM      30.20S                  
LAKE CITY      FAIR      68  45  42 NW3       30.20S                  
GAINESVILLE    FAIR      72  49  44 CALM      30.22S                  
PALATKA        FAIR      68  50  52 CALM      30.21R                  
MAYPORT NAS    FAIR      68  49  50 W3        30.19S                  
JACKSONVILLE   FAIR      69  46  43 VRB3      30.19S                  
JAX NAS        FAIR      68  46  45 N5        30.20S                  
JAX CECIL      SUNNY     72  48  43 N3        30.20R                  
FERNANDINA BEA FAIR      69  46  43 NW3       30.19S                  
ST AUGUSTINE     N/A     70  49  47 NW5       30.21S                  
PALM COAST     SUNNY     70  48  46 N6        30.20S                  

STATION/POSITION SKY/WX   TEMP    WIND        PRES    WAVE   SWELL
                          AIR SEA DIR/SP/G            HT/PER HT/PER
                          (F)     (DEG/KT/KT) (MB)    (FT/S) (FT/S)
SHELL POINT      NOT AVBL
KEATON BEACH               69      10/  2/  3 1023.0R
CEDAR KEY                  69      10/  3/  4 1022.6R
FERNANDINA                 69 69  280/  2/  3 1023.1R
30.7N   81.3W                 67                N/A     2/ 8
MAYPORT                    66 69  280/  3/  4 1022.5R
31.4N   80.9W              67 67  120/  4/  4 1022.3R   2/ 8   2/ 8
ST AUGUSTINE               68 71  360/  7/  7 1022.9R

$$
FLZ040-043>046-052-053-057-058-063-144-221500-
INTERIOR CENTRAL FLORIDA
  
CITY           SKY/WX    TMP DP  RH WIND       PRES   REMARKS
OCALA          FAIR      68  51  54 CALM      30.21S                  
LEESBURG       FAIR      69  48  47 NE3       30.21S                  
SANFORD        FAIR      69  52  54 N6        30.20S                  
ORLANDO EXEC   FAIR      70  45  40 N7        30.20S                  
ORLANDO INTL   FAIR      70  48  45 W5        30.20S                  
KISSIMMEE      FAIR      71  49  45 VRB5      30.21S                  
WINTER HAVEN   FAIR      71  50  47 N5        30.22R                  
LAKELAND       SUNNY     68  50  52 CALM      30.21S                  
SEBRING        FAIR      71  54  56 N7        30.20S                  
OKEECHOBEE     FAIR      70  54  56 N6        30.19S                  

$$
FLZ041-047-054-059-064-141-147-221500-
EAST CENTRAL FLORIDA
  
CITY           SKY/WX    TMP DP  RH WIND       PRES   REMARKS
ORMOND BEACH   SUNNY     68  50  52 CALM      30.20S                  
DAYTONA BEACH  FAIR      70  50  49 N3        30.20S                  
DELAND         FAIR      68  48  49 NW6       30.20S                  
NEW SMYRNA BEA SUNNY     72  46  40 N7        30.21S                  
JFK SPACE CTR  FAIR      70  52  51 N6        30.19R                  
TITUSVILLE     SUNNY     72  46  40 NW5       30.20S                  
CAPE CANAVERAL FAIR      71  46  41 N8        30.18R                  
PATRICK AFB    FAIR      71  55  55 NW8       30.19R                  
MELBOURNE      FAIR      73  51  46 N7        30.19R                  
VERO BEACH     FAIR      72  53  51 N7        30.19R                  
FT PIERCE      FAIR      73  53  49 VRB6      30.19R                  
STUART         MOSUNNY   73  55  53 N6        30.19R                  

STATION/POSITION SKY/WX   TEMP    WIND        PRES    WAVE   SWELL
                          AIR SEA DIR/SP/G            HT/PER HT/PER
                          (F)     (DEG/KT/KT) (MB)    (FT/S) (FT/S)
28.5N   80.2W              71     320/ 10/ 14 1022.5
28.9N   78.5W              72 78  360/  8/ 14 1022.1R   4/ 8   3/ 8
TRIDENT PIER               69 75  320/  5/  8 1023.6R
28.4N   80.5W                 75                N/A     2/ 8
27.5N   80.2W                 74                N/A     2/ 8

$$
FLZ050-056-061-142-242-148-248-149-249-151-251-155-255-
160-260-221500-
WEST CENTRAL FLORIDA
  
CITY           SKY/WX    TMP DP  RH WIND       PRES   REMARKS
CRYSTAL RIVER  FAIR      70  52  52 N5        30.20S                  
INVERNESS      FAIR      70  52  52 N3        30.21S                  
BROOKSVILLE    FAIR      68  54  60 NE3       30.21S                  
CLEARWATER AIR FAIR      68  46  45 E5        30.20F                  
ST PETE CLEARW FAIR      67  51  56 NE7       30.20S                  
TAMPA INTL     FAIR      70  48  45 VRB5      30.21S                  
PLANT CITY     FAIR      70  50  49 NE7       30.22S                  
MACDILL AFB    FAIR      71  47  43 E12       30.19F                  
PETER O KNIGHT CLOUDY    70  52  52 NE9       30.20F                  
ST PETERSBURG  SUNNY     66  50  55 E13       30.18F                  
SARASOTA       FAIR      72  49  44 NE7       30.17S                  
VENICE         FAIR      73  55  53 NE10      30.19S                  

STATION/POSITION SKY/WX   TEMP    WIND        PRES    WAVE   SWELL
                          AIR SEA DIR/SP/G            HT/PER HT/PER
                          (F)     (DEG/KT/KT) (MB)    (FT/S) (FT/S)
27.3N   84.2W                 74                N/A     2/ 3
CLEARWATER BEACH           68 71   50/  6/  8 1022.6F
MIDDLE TAMPA BAY           68      70/ 12/ 15 1022.5S
VENICE                     70 75   70/  8/ 13 1021.9R

$$
FLZ066-069-070-075>078-162-262-165-265-221500-
SOUTHWEST FLORIDA AND KEYS
  
CITY           SKY/WX    TMP DP  RH WIND       PRES   REMARKS
PUNTA GORDA    FAIR      72  54  53 NE9       30.20R                  
FT MYERS       FAIR      71  56  58 E8        30.17S                  
SOUTHWEST INTL FAIR      72  56  57 E7        30.17S                  
NAPLES         FAIR      73  61  65 NE10      30.16S                  
MARCO ISLAND   FAIR      73  58  59 E9        30.17S                  
IMMOKALEE      FAIR      75  57  53 NE9       30.15S                  
MARATHON       FAIR      82  56  40 SE6       30.13S                  
KEY WEST NAS   FAIR      77  59  53 E8        30.14R                  
KEY WEST INTL  FAIR      75  59  57 SE9       30.14S                  

STATION/POSITION SKY/WX   TEMP    WIND        PRES    WAVE   SWELL
                          AIR SEA DIR/SP/G            HT/PER HT/PER
                          (F)     (DEG/KT/KT) (MB)    (FT/S) (FT/S)
NAPLES                     71 74   70/  7/  9 1021.1S
DRY TORTUGAS               74      70/  8/ 10 1020.8R
SAND KEY                   73                 1020.6R
SOMBRERO KEY               74                 1019.9R

$$
FLZ067-068-071>074-168-172>174-221500-
SOUTHEAST FLORIDA 
  
CITY           SKY/WX    TMP DP  RH WIND       PRES   REMARKS
W PALM BEACH   PTSUNNY   73  58  59 NW8       30.17R                  
BOCA RATON     PTSUNNY   77  55  47 NE7       30.17R                  
FT LAUDER-EXEC FAIR      77  53  43 N9        30.17R                  
FT LAUDERDALE  PTSUNNY   74  54  49 E7        30.16R                  
POMPANO BEACH  PTSUNNY   77  53  43 E9        30.17R                  
PEMBROKE PINES PTSUNNY   77  53  43 NE13      30.18R                  
OPA LOCKA      PTSUNNY   77  56  48 E12       30.17R                  
MIAMI          FAIR      75  55  49 NE9       30.16R                  
WEST KENDALL   PTSUNNY   77  56  48 E7        30.15R                  
HOMESTEAD      MOSUNNY   77  59  53 NE13      30.14S                  

STATION/POSITION SKY/WX   TEMP    WIND        PRES    WAVE   SWELL
                          AIR SEA DIR/SP/G            HT/PER HT/PER
                          (F)     (DEG/KT/KT) (MB)    (FT/S) (FT/S)
PORT EVERGLADES            74      60/  7/ 10 1021.4R
VIRGINIA KEY               74 78   60/  9/ 12 1020.6R
LAKE WORTH                 73 77   60/ 10/ 12 1022.7R
SETTLEMENT POINT           72      40/ 10/ 11 1022.0R

$$